TimeCDT,TemperatureF,Dew PointF,Humidity,Sea Level PressureIn,VisibilityMPH,Wind Direction,Wind SpeedMPH,Gust SpeedMPH,PrecipitationIn,Events,Conditions,WindDirDegrees,DateUTC
12:56 AM,60.1,57.9,93,30.01,10.0,Calm,Calm,-,N/A,,Clear,0,2013-10-16 05:56:00
1:56 AM,61.0,59.0,93,30.00,10.0,SE,3.5,-,N/A,,Clear,130,2013-10-16 06:56:00
2:56 AM,62.1,59.0,90,29.99,10.0,Calm,Calm,-,0.01,,Clear,0,2013-10-16 07:56:00
3:56 AM,59.0,57.0,93,29.99,8.0,Calm,Calm,-,N/A,,Clear,0,2013-10-16 08:56:00
4:56 AM,59.0,57.0,93,29.99,9.0,Calm,Calm,-,N/A,,Clear,0,2013-10-16 09:56:00
5:56 AM,57.9,55.9,93,30.01,9.0,Calm,Calm,-,N/A,,Clear,0,2013-10-16 10:56:00
6:18 AM,57.2,55.4,94,30.01,10.0,Calm,Calm,-,N/A,,Scattered Clouds,0,2013-10-16 11:18:00
6:26 AM,57.2,55.4,94,30.01,2.5,Calm,Calm,-,N/A,,Mostly Cloudy,0,2013-10-16 11:26:00
6:31 AM,57.2,55.4,94,30.02,0.8,Calm,Calm,-,N/A,,Mist,0,2013-10-16 11:31:00
6:42 AM,59.0,57.2,94,30.02,2.0,Calm,Calm,-,N/A,,Mostly Cloudy,0,2013-10-16 11:42:00
6:48 AM,57.2,55.4,94,30.03,8.0,Calm,Calm,-,N/A,,Scattered Clouds,0,2013-10-16 11:48:00
6:56 AM,59.0,55.9,90,30.02,10.0,Calm,Calm,-,N/A,,Partly Cloudy,0,2013-10-16 11:56:00
7:56 AM,62.1,60.1,93,30.04,7.0,Calm,Calm,-,N/A,,Clear,0,2013-10-16 12:56:00
8:56 AM,66.9,62.1,84,30.04,10.0,Calm,Calm,-,N/A,,Clear,0,2013-10-16 13:56:00
9:56 AM,72.0,61.0,68,30.04,10.0,Variable,4.6,-,N/A,,Clear,0,2013-10-16 14:56:00
10:56 AM,75.0,62.1,64,30.03,10.0,Variable,4.6,-,N/A,,Clear,0,2013-10-16 15:56:00
11:56 AM,79.0,63.0,58,30.01,10.0,Variable,4.6,-,N/A,,Partly Cloudy,0,2013-10-16 16:56:00
12:56 PM,79.0,62.1,56,29.98,10.0,Calm,Calm,-,N/A,,Scattered Clouds,0,2013-10-16 17:56:00
1:56 PM,82.0,62.1,51,29.96,10.0,Variable,3.5,-,N/A,,Scattered Clouds,0,2013-10-16 18:56:00
2:56 PM,82.0,61.0,49,29.94,10.0,SW,5.8,-,N/A,,Partly Cloudy,220,2013-10-16 19:56:00
3:56 PM,82.0,61.0,49,29.93,10.0,Calm,Calm,-,N/A,,Mostly Cloudy,0,2013-10-16 20:56:00
4:56 PM,80.1,62.1,54,29.93,10.0,South,4.6,-,N/A,,Clear,190,2013-10-16 21:56:00
5:56 PM,78.1,63.0,60,29.94,10.0,South,3.5,-,N/A,,Mostly Cloudy,170,2013-10-16 22:56:00
6:56 PM,73.9,64.0,71,29.94,10.0,Calm,Calm,-,N/A,,Clear,0,2013-10-16 23:56:00
7:56 PM,72.0,64.0,76,29.95,10.0,South,3.5,-,N/A,,Clear,170,2013-10-17 00:56:00
8:56 PM,70.0,64.0,81,29.96,10.0,Calm,Calm,-,N/A,,Mostly Cloudy,0,2013-10-17 01:56:00
9:56 PM,71.1,63.0,75,29.97,10.0,South,3.5,-,N/A,,Mostly Cloudy,190,2013-10-17 02:56:00
10:56 PM,69.1,63.0,81,29.96,10.0,SSE,4.6,-,N/A,,Clear,160,2013-10-17 03:56:00
11:56 PM,68.0,64.0,87,29.94,10.0,South,3.5,-,N/A,,Scattered Clouds,190,2013-10-17 04:56:00